Location: ????????
(55.0559°N, 39.1270°E)
Time: 00:42:16
(UTC+00:00)

Cosmos 1802 Rocket - Pass Details

Date: 15 November 2025
Orbit: 953 x 1011 km, 82.9° (Epoch: 12 December)

Event Time Altitude Azimuth Distance (km) Brightness Sun altitude
Rises 01:11:15 0° 348° (NNW) 3,738 7.1 -31.7°
Reaches altitude 10° 01:13:49 10° 349° (N) 2,778 6.4 -31.3°
Enters shadow 01:17:46 41° 351° (N) 1,413 4.8 -30.8°
Exits shadow 01:21:22 62° 164° (SSE) 1,099 4.1 -30.3°
Drops below altitude 10° 01:26:28 10° 170° (S) 2,719 6.3 -29.5°
Sets 01:28:57 0° 170° (S) 3,654 7.0 -29.2°
